• In Hungary
  • List of Countries
  • For 7 days
  • Water Temperature
  • Satellite Maps
  • Weather Map
  • News
  • Weather Widgets
  • user-avatar
    Login

    Hourly Weather Glice

    Today, 18 July, Wednesday

    Time Temperature Precipitation Wind Pressure Humidity
    00:00 +20°C° 0.3 mm 3 mps 743 mmHg 96%
    01:00 +20°C° 0.3 mm 3 mps 743 mmHg 96%
    02:00 +20°C° 0 mm 3 mps 743 mmHg 96%
    03:00 +19°C° 0 mm 3 mps 743 mmHg 97%
    04:00 +19°C° 0 mm 3 mps 743 mmHg 97%
    05:00 +20°C° 0 mm 3 mps 743 mmHg 95%
    06:00 +21°C° 0 mm 3 mps 743 mmHg 93%
    07:00 +22°C° 0 mm 3 mps 743 mmHg 91%
    08:00 +24°C° 0.3 mm 3 mps 743 mmHg 85%
    09:00 +26°C° 0.3 mm 3 mps 743 mmHg 79%
    10:00 +27°C° 0.3 mm 3 mps 743 mmHg 73%
    11:00 +28°C° 0.6 mm 3 mps 743 mmHg 71%
    12:00 +28°C° 0.6 mm 3 mps 743 mmHg 69%
    13:00 +29°C° 0.6 mm 3 mps 743 mmHg 66%
    14:00 +29°C° 0.5 mm 3 mps 743 mmHg 66%
    15:00 +29°C° 0.5 mm 4 mps 743 mmHg 66%
    16:00 +29°C° 0.5 mm 4 mps 744 mmHg 66%
    17:00 +28°C° 0.5 mm 4 mps 744 mmHg 72%
    18:00 +27°C° 0.5 mm 4 mps 744 mmHg 78%
    19:00 +25°C° 0.5 mm 4 mps 744 mmHg 84%
    20:00 +23°C° 0.4 mm 4 mps 744 mmHg 87%
    21:00 +23°C° 0.4 mm 4 mps 745 mmHg 89%
    22:00 +22°C° 0.4 mm 3 mps 745 mmHg 92%
    23:00 +21°C° 0.2 mm 3 mps 745 mmHg 93%

    Tomorrow, 19 July, Thursday

    Time Temperature Precipitation Wind Pressure Humidity
    00:00 +21°C° 0.2 mm 3 mps 745 mmHg 94%
    01:00 +20°C° 0.2 mm 3 mps 745 mmHg 94%
    02:00 +20°C° 0 mm 3 mps 745 mmHg 94%
    03:00 +20°C° 0 mm 3 mps 746 mmHg 94%
    04:00 +19°C° 0 mm 3 mps 746 mmHg 94%
    05:00 +20°C° 0 mm 3 mps 746 mmHg 90%
    06:00 +21°C° 0 mm 3 mps 746 mmHg 85%
    07:00 +22°C° 0 mm 3 mps 747 mmHg 81%
    08:00 +25°C° 0 mm 4 mps 747 mmHg 72%
    09:00 +26°C° 0 mm 4 mps 747 mmHg 64%
    10:00 +28°C° 0 mm 4 mps 747 mmHg 55%
    11:00 +29°C° 0 mm 4 mps 747 mmHg 53%
    12:00 +29°C° 0 mm 4 mps 747 mmHg 51%
    13:00 +30°C° 0 mm 4 mps 747 mmHg 49%
    14:00 +29°C° 0 mm 4 mps 747 mmHg 52%
    15:00 +29°C° 0 mm 4 mps 747 mmHg 54%
    16:00 +29°C° 0 mm 4 mps 747 mmHg 57%
    17:00 +27°C° 0.1 mm 4 mps 747 mmHg 62%
    18:00 +26°C° 0.1 mm 4 mps 747 mmHg 68%
    19:00 +25°C° 0.1 mm 4 mps 747 mmHg 73%
    20:00 +23°C° 0 mm 4 mps 747 mmHg 77%
    21:00 +21°C° 0 mm 4 mps 747 mmHg 81%
    22:00 +20°C° 0 mm 3 mps 748 mmHg 85%
    23:00 +19°C° 0 mm 3 mps 748 mmHg 86%

    Day after tomorrow, 20 July, Friday

    Time Temperature Precipitation Wind Pressure Humidity
    00:00 +18°C° 0 mm 3 mps 748 mmHg 88%
    01:00 +18°C° 0 mm 3 mps 748 mmHg 90%
    02:00 +17°C° 0 mm 3 mps 748 mmHg 91%
    03:00 +17°C° 0 mm 4 mps 748 mmHg 91%
    04:00 +17°C° 0 mm 4 mps 748 mmHg 92%
    05:00 +18°C° 0 mm 4 mps 748 mmHg 87%
    06:00 +19°C° 0 mm 4 mps 748 mmHg 83%
    07:00 +21°C° 0 mm 4 mps 748 mmHg 78%
    08:00 +22°C° 0 mm 4 mps 748 mmHg 72%
    09:00 +25°C° 0 mm 5 mps 748 mmHg 66%
    10:00 +26°C° 0 mm 5 mps 748 mmHg 60%
    11:00 +27°C° 0 mm 5 mps 748 mmHg 58%
    12:00 +28°C° 0 mm 6 mps 747 mmHg 56%
    13:00 +28°C° 0 mm 6 mps 747 mmHg 53%
    14:00 +28°C° 0 mm 6 mps 747 mmHg 55%
    15:00 +28°C° 0 mm 6 mps 747 mmHg 56%
    16:00 +28°C° 0 mm 6 mps 747 mmHg 57%
    17:00 +26°C° 0 mm 5 mps 747 mmHg 62%
    18:00 +25°C° 0 mm 4 mps 747 mmHg 68%
    19:00 +23°C° 0 mm 4 mps 747 mmHg 73%
    20:00 +21°C° 0 mm 4 mps 747 mmHg 77%
    21:00 +20°C° 0 mm 4 mps 747 mmHg 80%
    22:00 +19°C° 0 mm 4 mps 747 mmHg 84%
    23:00 +18°C° 0 mm 3 mps 747 mmHg 85%

    21 July, Saturday

    Time Temperature Precipitation Wind Pressure Humidity
    00:00 +18°C° 0 mm 3 mps 747 mmHg 87%
    01:00 +17°C° 0 mm 3 mps 747 mmHg 88%
    02:00 +17°C° 0 mm 3 mps 747 mmHg 89%
    03:00 +16°C° 0 mm 3 mps 747 mmHg 90%
    04:00 +16°C° 0 mm 3 mps 747 mmHg 90%
    05:00 +17°C° 0 mm 3 mps 747 mmHg 85%
    06:00 +19°C° 0 mm 4 mps 747 mmHg 79%
    07:00 +20°C° 0 mm 4 mps 747 mmHg 74%
    08:00 +22°C° 0 mm 4 mps 747 mmHg 69%
    09:00 +25°C° 0 mm 4 mps 747 mmHg 64%
    10:00 +26°C° 0 mm 5 mps 747 mmHg 60%
    11:00 +27°C° 0 mm 5 mps 746 mmHg 58%
    12:00 +28°C° 0 mm 5 mps 746 mmHg 56%
    13:00 +28°C° 0 mm 5 mps 746 mmHg 55%
    14:00 +28°C° 0.1 mm 5 mps 746 mmHg 56%
    15:00 +28°C° 0.1 mm 5 mps 746 mmHg 58%
    16:00 +27°C° 0.1 mm 5 mps 746 mmHg 60%
    17:00 +26°C° 0.1 mm 4 mps 746 mmHg 65%
    18:00 +25°C° 0.1 mm 4 mps 746 mmHg 70%
    19:00 +24°C° 0.1 mm 3 mps 746 mmHg 75%
    20:00 +21°C° 0 mm 3 mps 746 mmHg 79%
    21:00 +20°C° 0 mm 3 mps 746 mmHg 83%
    22:00 +19°C° 0 mm 3 mps 746 mmHg 87%
    23:00 +18°C° 0 mm 3 mps 746 mmHg 88%

    22 July, Sunday

    Time Temperature Precipitation Wind Pressure Humidity
    00:00 +17°C° 0 mm 3 mps 746 mmHg 89%
    01:00 +16°C° 0 mm 2 mps 746 mmHg 90%
    02:00 +16°C° 0 mm 2 mps 747 mmHg 89%
    03:00 +15°C° 0 mm 2 mps 747 mmHg 89%
    04:00 +15°C° 0 mm 2 mps 747 mmHg 88%
    05:00 +17°C° 0 mm 2 mps 747 mmHg 83%
    06:00 +18°C° 0 mm 2 mps 747 mmHg 77%
    07:00 +20°C° 0 mm 3 mps 747 mmHg 71%
    08:00 +21°C° 0 mm 3 mps 747 mmHg 65%
    09:00 +23°C° 0 mm 4 mps 747 mmHg 59%
    10:00 +26°C° 0 mm 4 mps 747 mmHg 54%
    11:00 +26°C° 0 mm 4 mps 747 mmHg 53%
    12:00 +27°C° 0 mm 5 mps 747 mmHg 52%
    13:00 +27°C° 0 mm 5 mps 747 mmHg 50%
    14:00 +27°C° 0 mm 5 mps 747 mmHg 51%
    15:00 +27°C° 0 mm 5 mps 747 mmHg 51%
    16:00 +26°C° 0 mm 5 mps 747 mmHg 52%
    17:00 +25°C° 0 mm 4 mps 747 mmHg 57%
    18:00 +24°C° 0 mm 3 mps 748 mmHg 63%
    19:00 +22°C° 0 mm 3 mps 748 mmHg 69%
    20:00 +20°C° 0 mm 2 mps 748 mmHg 73%
    21:00 +19°C° 0 mm 2 mps 748 mmHg 76%
    22:00 +18°C° 0 mm 2 mps 749 mmHg 80%
    23:00 +17°C° 0 mm 2 mps 749 mmHg 83%

    23 July, Monday

    Time Temperature Precipitation Wind Pressure Humidity
    00:00 +17°C° 0 mm 2 mps 749 mmHg 86%
    01:00 +16°C° 0 mm 2 mps 749 mmHg 89%
    02:00 +16°C° 0 mm 2 mps 749 mmHg 90%
    03:00 +15°C° 0 mm 2 mps 749 mmHg 92%
    04:00 +15°C° 0 mm 2 mps 749 mmHg 93%
    05:00 +16°C° 0 mm 2 mps 749 mmHg 87%
    06:00 +18°C° 0 mm 3 mps 750 mmHg 80%
    07:00 +19°C° 0 mm 3 mps 750 mmHg 74%
    08:00 +20°C° 0 mm 4 mps 750 mmHg 69%
    09:00 +22°C° 0 mm 4 mps 750 mmHg 64%
    10:00 +23°C° 0 mm 4 mps 750 mmHg 59%
    11:00 +25°C° 0 mm 5 mps 750 mmHg 57%
    12:00 +25°C° 0 mm 5 mps 749 mmHg 55%
    13:00 +26°C° 0 mm 5 mps 749 mmHg 53%
    14:00 +26°C° 0 mm 5 mps 749 mmHg 54%
    15:00 +26°C° 0 mm 5 mps 749 mmHg 54%
    16:00 +26°C° 0 mm 5 mps 749 mmHg 55%
    17:00 +25°C° 0 mm 4 mps 749 mmHg 60%
    18:00 +24°C° 0 mm 3 mps 749 mmHg 66%
    19:00 +23°C° 0 mm 2 mps 749 mmHg 71%
    20:00 +21°C° 0 mm 2 mps 749 mmHg 75%
    21:00 +19°C° 0 mm 2 mps 750 mmHg 79%
    22:00 +18°C° 0 mm 2 mps 750 mmHg 84%
    23:00 +19°C° 0 mm 1 mps 750 mmHg 86%
    Show more